Back to catalog

QIANFAN-74

AliveCommunicationsPO
NORAD 63160·PAYLOAD·🇨🇳 China

Launched Mar 11, 2025 from Wenchang Space Launch Site

Loading…

Next Passes (next 24 hours)

TLE

FreshSource: Space-Track

Epoch: Sep 14, 2026, 13:08 UTC

1 63160U 25046B   26257.54743805 -.00000006  00000-0 -27328-4 0  9995
2 63160  88.9653 291.2778 0001821  96.1980 263.9378 13.51018699 84719

Track QIANFAN-74 in real time with AllMySat

Download on the App Store